TimeEDT,TemperatureF,Dew PointF,Humidity,Sea Level PressureIn,VisibilityMPH,Wind Direction,Wind SpeedMPH,Gust SpeedMPH,PrecipitationIn,Events,Conditions,WindDirDegrees,DateUTC
12:54 AM,63.0,57.9,84,29.96,8.0,West,4.6,-,N/A,,Overcast,270,2013-05-09 04:54:00
1:54 AM,62.1,57.0,84,29.95,10.0,WNW,8.1,-,N/A,,Mostly Cloudy,290,2013-05-09 05:54:00
2:27 AM,60.8,55.4,82,29.95,10.0,WNW,6.9,-,N/A,,Mostly Cloudy,290,2013-05-09 06:27:00
2:37 AM,60.8,55.4,82,29.95,10.0,West,6.9,-,N/A,,Scattered Clouds,280,2013-05-09 06:37:00
2:54 AM,61.0,55.9,83,29.95,10.0,West,5.8,-,N/A,,Partly Cloudy,260,2013-05-09 06:54:00
3:54 AM,59.0,53.1,81,29.95,7.0,WSW,5.8,-,N/A,,Partly Cloudy,250,2013-05-09 07:54:00
4:04 AM,59.0,53.6,82,29.95,7.0,West,5.8,-,N/A,,Scattered Clouds,260,2013-05-09 08:04:00
4:16 AM,59.0,53.6,82,29.95,6.0,West,5.8,-,N/A,,Haze,270,2013-05-09 08:16:00
4:54 AM,59.0,54.0,83,29.96,3.0,WSW,5.8,-,N/A,,Haze,250,2013-05-09 08:54:00
5:54 AM,57.9,53.1,84,29.97,10.0,West,5.8,-,N/A,,Overcast,260,2013-05-09 09:54:00
6:54 AM,59.0,53.1,81,29.98,10.0,West,6.9,-,N/A,,Overcast,280,2013-05-09 10:54:00
7:54 AM,60.1,54.0,80,30.00,10.0,WSW,6.9,-,N/A,,Overcast,250,2013-05-09 11:54:00
8:54 AM,60.1,54.0,80,30.01,10.0,WSW,8.1,-,N/A,,Overcast,240,2013-05-09 12:54:00
9:54 AM,63.0,55.0,75,30.03,10.0,WSW,6.9,-,N/A,,Mostly Cloudy,250,2013-05-09 13:54:00
10:01 AM,64.4,55.4,73,30.02,10.0,West,6.9,-,N/A,,Scattered Clouds,260,2013-05-09 14:01:00
10:54 AM,68.0,55.9,65,30.02,10.0,SW,8.1,-,N/A,,Clear,230,2013-05-09 14:54:00
11:54 AM,71.1,55.9,59,30.02,10.0,WSW,8.1,-,N/A,,Clear,250,2013-05-09 15:54:00
12:54 PM,73.4,55.4,53,30.00,10.0,SW,9.2,-,N/A,,Clear,220,2013-05-09 16:54:00
1:54 PM,78.1,55.9,46,29.99,10.0,SW,9.2,-,N/A,,Clear,230,2013-05-09 17:54:00
2:54 PM,80.1,54.0,40,29.98,10.0,SW,12.7,-,N/A,,Partly Cloudy,230,2013-05-09 18:54:00
3:54 PM,80.1,54.0,40,29.98,10.0,West,11.5,17.3,N/A,,Scattered Clouds,270,2013-05-09 19:54:00
4:54 PM,81.0,55.0,41,29.97,10.0,West,8.1,-,N/A,,Clear,270,2013-05-09 20:54:00
5:54 PM,80.1,55.0,42,29.98,10.0,West,5.8,-,N/A,,Clear,280,2013-05-09 21:54:00
6:54 PM,77.0,52.0,42,29.98,10.0,WNW,6.9,-,N/A,,Partly Cloudy,290,2013-05-09 22:54:00
7:54 PM,73.0,55.9,55,29.99,10.0,Calm,Calm,-,N/A,,Clear,0,2013-05-09 23:54:00
8:54 PM,66.0,55.9,70,30.01,10.0,Calm,Calm,-,N/A,,Clear,0,2013-05-10 00:54:00
9:54 PM,64.0,55.0,73,30.03,10.0,Calm,Calm,-,N/A,,Clear,0,2013-05-10 01:54:00
10:54 PM,64.0,55.0,73,30.04,10.0,Calm,Calm,-,N/A,,Clear,0,2013-05-10 02:54:00
11:54 PM,62.1,55.9,80,30.04,10.0,Calm,Calm,-,N/A,,Clear,0,2013-05-10 03:54:00